[[{"header":{"parameterUnit":"m.s-1","parameterCategory":1,"la1":30.2991,"la2":30.254,"lo1":-89.0895,"lo2":-89.0444,"dy":0.0017,"dx":0.0017,"nx":28,"ny":28,"refTime":"2024-09-26T03:00:00:Z","depth":0,"parameterNumber":2,"parameterNumberName":"U-component_of_WINDS"},"data":[0,0,0,0,0,0,0,0,0,0,0,0,0,0,0,0,0,0,0,0,0,0,0,0,0,0,0,0,0,0,0,0,0,0,0,0,0,0,0,0,0,0,0,0,0,0,0,0,0,0,0,0,0,0,0,0,0,0,7.6977,7.6979,0,7.7103,7.7105,7.7106,7.7024,7.7021,7.7017,7.7013,7.7144,7.7151,7.7158,0,0,0,0,0,0,0,0,0,0,0,0,0,7.6667,7.6673,7.6977,7.6979,7.698,7.7103,7.7105,7.7107,7.7025,7.702,7.7016,7.7011,7.7142,7.715,7.7159,0,0,0,0,0,0,0,0,0,0,0,0,0,7.6799,7.6675,7.6977,7.6954,7.6954,7.7103,7.7105,7.7107,7.7026,7.702,7.7015,7.7009,7.7139,7.7149,7.716,7.7339,0,0,7.7192,7.7196,0,0,0,0,0,0,0,0,7.6791,7.681,7.6956,7.6956,7.6956,7.7042,7.7044,7.7185,7.7027,7.6999,7.7013,7.7006,7.7115,7.7127,7.7163,7.7345,7.735,7.7193,7.7199,7.7204,7.7207,0,0,0,0,0,0,0,7.6782,7.6804,7.7027,7.6958,7.6958,7.6939,7.6951,7.707,7.7087,7.7001,7.6995,7.7011,7.7114,7.7153,7.7166,7.7352,7.7193,7.7202,7.7208,7.7213,7.7687,7.7693,0,0,0,0,0,0,7.6775,7.6797,7.7023,7.7031,7.6858,7.6949,7.6963,7.702,7.7086,7.709,7.7016,7.7007,7.7138,7.7154,7.717,7.7383,7.7204,7.7214,7.722,7.768,7.7688,7.7695,0,0,0,0,0,0,7.6768,7.6796,7.7018,7.6913,7.6939,7.696,7.7026,7.7026,7.7065,7.7097,7.71,7.7053,7.7134,7.7155,7.7297,7.7386,7.7218,7.7228,7.7673,7.7683,7.7691,7.7811,0,0,0,0,0,0,7.676,7.6794,7.6862,7.6915,7.6945,7.7143,7.7031,7.7032,7.7083,7.7073,7.7133,7.7137,7.7131,7.7282,7.7308,7.7398,7.7236,7.7665,7.7677,7.7688,7.7799,7.7823,7.7844,0,0,0,0,0,7.6749,7.6891,7.6865,7.6893,7.703,7.7148,7.7166,7.7156,7.7091,7.7159,7.718,7.7135,7.7373,7.7297,7.7325,7.742,7.7659,7.7674,7.7687,7.7789,7.7818,7.7843,0,0,0,0,0,0,7.6848,7.6897,7.687,7.7033,7.7087,7.7134,7.722,7.7187,7.7261,7.7248,7.7233,7.7248,7.7396,7.7422,7.7337,7.7597,7.7506,7.7526,7.7573,7.7602,7.7624,7.7613,7.7245,0,0,0,0,0,7.6889,7.698,7.7018,7.7158,7.7187,7.7199,7.725,7.7238,7.7293,7.7316,7.7347,7.7403,7.749,7.7548,7.763,7.7803,7.7815,7.7882,7.7905,7.7923,7.794,7.8033,7.8064,7.7741,7.7741,7.7741,0,0,7.6974,7.7012,7.707,7.7179,7.7219,7.7314,7.7219,7.7323,7.7393,7.7332,7.7467,7.7492,7.7554,7.7712,7.7783,7.7739,7.8032,7.7941,7.7955,7.7963,7.8051,7.8081,7.8109,7.7751,7.7749,7.7747,0,0,7.7177,7.7215,7.7336,7.7378,7.7441,7.7448,7.7477,7.753,7.7544,7.7679,7.7635,7.7719,7.7869,7.7915,7.7958,7.8179,7.8141,7.8207,7.8323,7.8414,7.8439,7.8462,7.854,7.8568,7.8224,7.8225,7.8225,0,7.7274,7.7415,7.7402,7.751,7.7559,7.7507,7.7629,7.7671,7.7758,7.7793,7.7742,7.793,7.7968,7.8136,7.819,7.8227,7.8259,7.8199,7.8437,7.8459,7.848,7.8554,7.8583,7.8232,7.8231,7.8231,7.823,0,7.7531,7.763,7.772,7.7804,7.7863,7.7978,7.7982,7.8044,7.8028,7.8041,7.8179,7.8224,7.8313,7.8353,7.8338,7.8519,7.8489,7.8438,7.8346,7.8518,7.8587,7.8616,7.8243,7.824,7.8238,7.8236,0,0,7.7798,7.7874,7.7907,7.7945,7.801,7.8086,7.8199,7.8286,7.8339,7.8401,7.8494,7.8624,7.8577,7.8626,7.8616,7.8696,7.8867,7.8635,7.8636,7.8675,7.9068,7.9104,7.9137,7.8843,7.8848,7.8852,7.9062,0,7.8004,7.8199,7.8191,7.8374,7.8464,7.8417,7.8515,7.8566,7.8582,7.8661,7.8679,7.877,7.8702,7.8731,7.8808,7.883,7.8945,7.8815,7.8929,7.8933,7.8912,7.9173,7.9212,7.9408,7.9089,7.9094,7.9097,0,7.8269,7.8339,7.853,7.8582,7.862,7.8708,7.8787,7.8864,7.8921,7.8927,7.8982,7.8959,7.9073,7.898,7.9137,7.9049,7.9095,7.9113,7.912,7.9129,7.9024,7.9187,7.947,7.9499,7.914,7.9136,7.9133,0,7.8442,7.8585,7.8718,7.8751,7.8816,7.8879,7.8908,7.896,7.9013,7.9083,7.9117,7.92,7.9245,7.931,7.931,7.9242,7.9469,7.9376,7.9476,7.9476,7.9524,7.952,7.9816,7.9558,7.9557,7.9557,7.9556,0,7.8671,7.879,7.8796,7.8878,7.9009,7.9,7.913,7.9154,7.9201,7.9286,7.9252,7.9333,7.9329,7.9411,7.9413,7.9542,7.9563,7.957,7.9569,7.9572,7.9571,7.9601,7.9586,7.9564,7.9563,7.9561,7.956,0,7.8887,7.8896,7.9037,7.9086,7.9102,7.9196,7.9239,7.9316,7.9329,7.9438,7.9463,7.9483,7.9578,7.9585,7.9696,7.9697,7.9853,7.9838,7.9833,7.983,7.9928,7.9918,8.0252,8.0295,8.0011,8.0013,8.0016,0,7.9031,7.9121,7.918,7.9234,7.9268,7.9356,7.941,7.9405,7.9462,7.9535,7.9603,7.9695,7.9768,7.9922,7.9947,8.0031,8.0017,8.0128,8.0029,8.0029,8.0016,8.001,8.0018,8.0146,8.015,8.0152,8.0154,0,7.9286,7.9286,7.9364,7.9445,7.951,7.9574,7.9633,7.9679,7.9681,7.9748,7.9844,7.9901,8.0013,8.0105,8.0187,8.0218,8.0187,8.0186,8.0213,8.0216,8.0208,8.0212,7.9883,8.0177,8.0175,8.0173,8.0172,8.0171,7.9469,7.9546,7.96,7.9688,7.9732,7.9788,7.9863,7.9885,7.9966,8.0056,8.0049,8.0155,8.0211,8.0318,8.0356,8.0439,8.0401,8.0442,8.0451,8.0461,8.047,8.0197,8.0455,8.0454,8.0453,8.0453,8.0452,0,7.972,7.9752,7.9834,7.9917,7.9987,7.9952,8.0016,8.0076,8.017,8.0225,8.0297,8.0408,8.0496,8.0529,8.0615,8.0675,8.0663,8.0698,8.0692,8.07,8.05,8.0466,8.0706,8.0706,8.0706,8.0706,8.0706,8.0706,7.9859,7.9987,7.9994,8.0144,8.0176,8.0279,8.0319,8.037,8.0413,8.0538,8.0611,8.0632,8.0677,8.0767,8.0846,8.0853,8.0886,8.0927,8.0928,8.074,8.0714,8.0689,8.0658,8.0934,8.0935,8.112,8.1122,8.1123]},{"header":{"parameterUnit":"m.s-1","parameterCategory":1,"la1":30.2991,"la2":30.254,"lo1":-89.0895,"lo2":-89.0444,"dy":0.0017,"dx":0.0017,"nx":28,"ny":28,"refTime":"2024-09-26T03:00:00:Z","depth":0,"parameterNumber":3,"parameterNumberName":"V-component_of_WINDS"},"data":[0,0,0,0,0,0,0,0,0,0,0,0,0,0,0,0,0,0,0,0,0,0,0,0,0,0,0,0,0,0,0,0,0,0,0,0,0,0,0,0,0,0,0,0,0,0,0,0,0,0,0,0,0,0,0,0,0,0,2.9266,2.9266,0,2.9353,2.9354,2.9355,2.9383,2.9382,2.9382,2.9381,2.9469,2.9471,2.9474,0,0,0,0,0,0,0,0,0,0,0,0,0,2.9119,2.9121,2.9265,2.9267,2.9268,2.9353,2.9354,2.9355,2.9383,2.9382,2.9382,2.9381,2.9468,2.9471,2.9474,0,0,0,0,0,0,0,0,0,0,0,0,0,2.9192,2.9122,2.9265,2.9292,2.9295,2.9353,2.9354,2.9356,2.9383,2.9382,2.9382,2.9381,2.9467,2.9471,2.9475,2.9512,0,0,2.9487,2.9489,0,0,0,0,0,0,0,0,2.9188,2.9197,2.9287,2.929,2.9294,2.9356,2.9334,2.9408,2.9383,2.9349,2.9381,2.9381,2.9432,2.9438,2.9456,2.9516,2.952,2.9487,2.949,2.9492,2.9493,0,0,0,0,0,0,0,2.9183,2.9194,2.93,2.9288,2.9292,2.9298,2.9308,2.9348,2.9393,2.9352,2.9354,2.9365,2.9433,2.9452,2.9458,2.9521,2.9487,2.9491,2.9493,2.9495,2.9614,2.9614,0,0,0,0,0,0,2.9173,2.9189,2.9297,2.9303,2.9238,2.9301,2.9312,2.9337,2.9392,2.94,2.9365,2.9365,2.9446,2.9454,2.9462,2.9508,2.9492,2.9495,2.9498,2.9613,2.9614,2.9615,0,0,0,0,0,0,2.917,2.9183,2.9294,2.9247,2.9261,2.9304,2.9332,2.9339,2.9358,2.9402,2.941,2.9376,2.9445,2.9456,2.9499,2.9511,2.9497,2.9501,2.9612,2.9613,2.9614,2.9601,0,0,0,0,0,0,2.9166,2.9182,2.9197,2.9247,2.9264,2.9331,2.9333,2.9341,2.9365,2.9366,2.9415,2.9422,2.9446,2.9493,2.9503,2.9517,2.9504,2.9611,2.9613,2.9614,2.9601,2.9602,2.9603,0,0,0,0,0,2.9161,2.919,2.9198,2.921,2.9284,2.9331,2.9341,2.9368,2.9366,2.9381,2.9409,2.9421,2.9508,2.9497,2.9509,2.9524,2.9611,2.9612,2.9614,2.96,2.9601,2.9603,0,0,0,0,0,0,2.914,2.9197,2.9206,2.9252,2.9287,2.9336,2.9356,2.9369,2.9404,2.9404,2.9435,2.9446,2.9486,2.9509,2.9496,2.9562,2.956,2.9564,2.9545,2.9547,2.9548,2.9541,2.9507,0,0,0,0,0,2.914,2.9175,2.9223,2.9259,2.9275,2.9313,2.9334,2.9352,2.9389,2.9403,2.9435,2.9469,2.9504,2.9527,2.9562,2.9604,2.9614,2.962,2.9621,2.9621,2.9624,2.9647,2.965,2.962,2.962,2.962,0,0,2.9142,2.9178,2.9198,2.9255,2.9284,2.9318,2.9325,2.9361,2.9386,2.9409,2.9451,2.9475,2.9516,2.9558,2.9578,2.9578,2.9635,2.9624,2.9624,2.9627,2.9649,2.9652,2.9654,2.9621,2.9621,2.9621,0,0,2.9163,2.9194,2.9227,2.9255,2.9299,2.9323,2.9331,2.9378,2.9395,2.9439,2.9456,2.9486,2.9546,2.9574,2.9596,2.9625,2.9637,2.9636,2.9641,2.9662,2.9665,2.9667,2.9677,2.968,2.9639,2.9639,2.9639,0,2.916,2.9213,2.9242,2.9277,2.9301,2.9324,2.9356,2.9382,2.9435,2.9451,2.945,2.9526,2.9554,2.9603,2.961,2.9627,2.9636,2.9631,2.9662,2.9665,2.9667,2.9677,2.968,2.9638,2.9638,2.9638,2.9638,0,2.9206,2.9242,2.9263,2.9314,2.934,2.9374,2.9407,2.943,2.9446,2.9469,2.9512,2.9548,2.9589,2.9602,2.9618,2.9653,2.9651,2.9656,2.9655,2.9669,2.9679,2.9683,2.9638,2.9638,2.9638,2.9638,0,0,2.9216,2.9282,2.9289,2.9312,2.9361,2.9389,2.9423,2.9465,2.9484,2.9519,2.9547,2.9597,2.9601,2.9626,2.9644,2.9664,2.9684,2.9666,2.9667,2.9667,2.9723,2.9719,2.9723,2.9691,2.9692,2.9693,2.9719,0,2.9243,2.9306,2.9332,2.9382,2.9415,2.9437,2.9466,2.9499,2.9521,2.9552,2.9577,2.9612,2.9615,2.963,2.965,2.9677,2.9695,2.9675,2.9717,2.9718,2.9706,2.9728,2.9724,2.9748,2.9723,2.9724,2.9725,0,2.9283,2.9318,2.9372,2.9416,2.9431,2.9457,2.9496,2.9526,2.9562,2.9578,2.9605,2.9622,2.9657,2.9653,2.9701,2.9687,2.9705,2.9721,2.9722,2.9727,2.9722,2.9733,2.9756,2.9759,2.9731,2.973,2.973,0,2.9284,2.9345,2.9385,2.9404,2.9457,2.9474,2.9497,2.9533,2.9556,2.959,2.9605,2.9642,2.9663,2.9691,2.9717,2.9712,2.9762,2.976,2.9775,2.9774,2.9784,2.9783,2.981,2.9797,2.9796,2.9796,2.9796,0,2.9311,2.9342,2.9386,2.941,2.9446,2.9475,2.9509,2.9533,2.9565,2.9594,2.9614,2.964,2.9673,2.9703,2.9723,2.9759,2.9768,2.9781,2.9786,2.9779,2.9777,2.9791,2.979,2.9797,2.9797,2.9797,2.9797,0,2.9318,2.9349,2.9394,2.944,2.9452,2.9476,2.9515,2.9539,2.9562,2.9598,2.9608,2.9644,2.968,2.9709,2.9756,2.977,2.9807,2.9813,2.9795,2.9798,2.981,2.9808,2.9847,2.9853,2.9835,2.9835,2.9835,0,2.9333,2.9358,2.9407,2.9428,2.945,2.9484,2.9507,2.9537,2.956,2.9603,2.9621,2.9659,2.969,2.9746,2.9776,2.9812,2.9819,2.983,2.9824,2.9816,2.9818,2.9816,2.9818,2.983,2.983,2.983,2.983,0,2.9356,2.937,2.9404,2.9442,2.947,2.9501,2.9533,2.9549,2.9584,2.9609,2.9646,2.967,2.9718,2.9755,2.9793,2.9815,2.9828,2.9832,2.9837,2.983,2.9818,2.9824,2.9796,2.9831,2.9831,2.9831,2.9831,2.9831,2.9368,2.939,2.9428,2.9464,2.9491,2.9521,2.9545,2.9571,2.9603,2.9645,2.966,2.9698,2.9733,2.9786,2.9808,2.9837,2.9838,2.9846,2.9848,2.9849,2.9848,2.9813,2.9844,2.9844,2.9845,2.9845,2.9845,0,2.9391,2.9416,2.9449,2.9493,2.9522,2.9532,2.9567,2.959,2.9623,2.9655,2.9686,2.9728,2.9763,2.9796,2.9832,2.9849,2.9856,2.9858,2.9856,2.9861,2.9845,2.9837,2.9851,2.9851,2.9851,2.9851,2.9851,2.9851,2.9406,2.9445,2.9463,2.9515,2.954,2.9578,2.9597,2.9623,2.9649,2.9695,2.9725,2.9746,2.9777,2.9816,2.9848,2.9857,2.9869,2.9869,2.9879,2.9863,2.9862,2.9861,2.9854,2.9872,2.9872,2.9893,2.9893,2.9893]}]]